TimeMDT,TemperatureF,Dew PointF,Humidity,Sea Level PressureIn,VisibilityMPH,Wind Direction,Wind SpeedMPH,Gust SpeedMPH,PrecipitationIn,Events,Conditions,WindDirDegrees,DateUTC
12:53 AM,48.0,21.0,34,29.73,10.0,SW,15.0,-,N/A,,Clear,230,2012-10-09 06:53:00
2:53 AM,37.9,25.0,60,29.79,10.0,NW,18.4,-,N/A,,Clear,320,2012-10-09 08:53:00
3:53 AM,35.1,28.0,76,29.83,10.0,North,11.5,-,N/A,,Clear,360,2012-10-09 09:53:00
4:53 AM,36.0,32.0,86,29.87,10.0,NNE,15.0,19.6,N/A,,Clear,20,2012-10-09 10:53:00
5:53 AM,34.0,32.0,92,29.91,10.0,NE,9.2,-,N/A,,Clear,50,2012-10-09 11:53:00
6:53 AM,30.9,30.0,96,29.99,9.0,North,8.1,-,N/A,,Clear,10,2012-10-09 12:53:00
7:17 AM,33.8,32.0,93,30.02,9.0,North,6.9,-,N/A,,Scattered Clouds,10,2012-10-09 13:17:00
7:25 AM,35.6,33.8,93,30.03,9.0,North,9.2,-,N/A,,Mostly Cloudy,360,2012-10-09 13:25:00
7:34 AM,37.4,35.6,93,30.03,10.0,North,6.9,-,N/A,,Overcast,350,2012-10-09 13:34:00
7:53 AM,37.0,36.0,96,30.00,9.0,NNE,6.9,-,N/A,,Overcast,20,2012-10-09 13:53:00
8:26 AM,39.2,37.4,93,30.05,10.0,NNE,16.1,-,N/A,,Overcast,30,2012-10-09 14:26:00
8:53 AM,39.0,37.0,93,30.04,10.0,NNE,12.7,-,N/A,,Overcast,30,2012-10-09 14:53:00
9:22 AM,39.2,37.4,93,30.08,7.0,North,10.4,-,N/A,,Overcast,10,2012-10-09 15:22:00
9:53 AM,39.0,37.0,93,30.08,10.0,North,10.4,-,N/A,,Overcast,360,2012-10-09 15:53:00
10:12 AM,39.2,35.6,87,30.10,10.0,North,9.2,-,N/A,,Overcast,10,2012-10-09 16:12:00
10:30 AM,39.2,35.6,87,30.10,10.0,North,8.1,-,N/A,,Overcast,350,2012-10-09 16:30:00
10:53 AM,41.0,37.0,86,30.08,10.0,North,10.4,-,N/A,,Overcast,360,2012-10-09 16:53:00
11:53 AM,41.0,37.0,86,30.09,10.0,NNE,10.4,-,N/A,,Overcast,20,2012-10-09 17:53:00
12:53 PM,42.1,37.0,82,30.09,10.0,NE,10.4,-,N/A,,Overcast,40,2012-10-09 18:53:00
1:23 PM,46.4,37.4,71,30.10,10.0,North,8.1,-,N/A,,Overcast,10,2012-10-09 19:23:00
1:45 PM,46.4,35.6,66,30.10,10.0,North,8.1,-,N/A,,Mostly Cloudy,10,2012-10-09 19:45:00
1:53 PM,46.0,36.0,68,30.07,10.0,NNE,10.4,-,N/A,,Overcast,20,2012-10-09 19:53:00
2:53 PM,46.0,35.1,66,30.11,10.0,North,12.7,-,N/A,,Mostly Cloudy,10,2012-10-09 20:53:00
3:29 PM,48.2,33.8,58,30.12,10.0,NNW,12.7,20.7,N/A,,Scattered Clouds,340,2012-10-09 21:29:00
3:53 PM,48.0,34.0,58,30.12,10.0,North,16.1,-,N/A,,Partly Cloudy,360,2012-10-09 21:53:00
4:46 PM,46.4,33.8,62,30.13,10.0,North,12.7,-,N/A,,Mostly Cloudy,360,2012-10-09 22:46:00
4:53 PM,46.0,33.1,61,30.14,10.0,North,11.5,-,N/A,,Mostly Cloudy,360,2012-10-09 22:53:00
5:18 PM,44.6,32.0,61,30.14,10.0,North,9.2,-,N/A,,Scattered Clouds,10,2012-10-09 23:18:00
5:53 PM,42.1,32.0,67,30.18,10.0,North,5.8,-,N/A,,Clear,350,2012-10-09 23:53:00
6:53 PM,37.9,30.9,76,30.23,10.0,Calm,Calm,-,N/A,,Clear,0,2012-10-10 00:53:00
7:53 PM,37.0,30.0,76,30.24,10.0,Calm,Calm,-,N/A,,Clear,0,2012-10-10 01:53:00
8:53 PM,37.9,30.9,76,30.24,10.0,Calm,Calm,-,N/A,,Clear,0,2012-10-10 02:53:00
9:53 PM,35.1,30.0,82,30.26,10.0,South,3.5,-,N/A,,Clear,190,2012-10-10 03:53:00
10:53 PM,34.0,30.0,85,30.25,10.0,SSW,5.8,-,N/A,,Clear,200,2012-10-10 04:53:00
11:53 PM,34.0,30.0,85,30.25,10.0,SSW,6.9,-,N/A,,Clear,200,2012-10-10 05:53:00